#timestamp,LO_Frequency,Hit,StdDev 
1577599215.7,286046998.1,N
1577599235.5,286046999.6,N
1577599255.4,286046998.3,N
1577599275.2,286046999.7,N
1577599295.0,286047000.2,N
1577599295.9,286047000.2,N
1577599315.8,286047001.0,N
1577599335.6,286047001.0,N
1577599355.4,286046998.7,N
1577599375.3,286046999.6,N
1577599395.1,286046997.9,N
1577599415.9,286046997.9,N
1577599435.7,286046998.5,N
1577599455.5,286046998.8,N
1577599475.4,286046999.3,N
1577599495.2,286046997.3,N
1577599515.0,286046994.9,Y
1577599516.0,286046994.9,P
1577599535.8,286046997.3,N
1577599555.6,286046996.9,N
1577599575.5,286046997.0,N
1577599595.3,286046997.2,N
1577599615.1,286046998.6,N
1577599635.9,286047002.8,N
1577599655.7,286046998.3,N
1577599675.6,286046998.7,N
1577599695.4,286046998.4,N
1577599715.2,286046998.9,N
1577599735.1,286046999.0,N
1577599736.0,286046999.0,N
1577599755.8,286047000.0,N
1577599775.6,286046999.9,N
1577599795.5,286047002.8,N
1577599815.3,286047002.8,N
1577599835.2,286047005.9,N
1577599855.9,286047003.8,N
1577599875.7,286047002.0,N
1577599895.6,286047002.4,N
1577599915.4,286047001.5,N
1577599935.2,286047003.7,N
1577599955.1,286046999.8,N
1577599956.0,286046999.8,N
1577599975.8,286047001.4,N
1577599995.7,286047002.8,N
1577600015.5,286046998.2,N
1577600035.3,286046999.1,N
1577600055.2,286047000.2,N
1577600075.0,286047001.5,N
1577600075.9,286047001.5,N
1577600095.8,286047000.7,N
1577600115.6,286047000.8,N
1577600135.4,286047000.6,N
1577600155.3,286046998.9,N
1577600175.1,286047000.8,N
1577600195.8,286046996.5,N
1577600215.7,286046997.1,N
1577600235.5,286046998.7,N
1577600255.4,286046998.7,N
1577600275.2,286046999.9,N
1577600295.0,286047001.7,N
1577600295.9,286047001.7,N
1577600315.8,286047000.1,N
1577600335.6,286046998.6,N
1577600355.5,286047000.6,N
1577600375.3,286046998.7,N
1577600395.1,286046999.0,N
1577600415.9,286046997.0,N
1577600435.7,286047000.7,N
1577600455.5,286046997.0,N
1577600475.4,286046999.4,N
1577600495.2,286047000.5,N
1577600515.1,286047002.7,N
1577600516.0,286047002.7,N
1577600535.8,286047001.7,N
1577600555.6,286047002.2,N
1577600575.5,286046999.7,N
1577600595.3,286047002.3,N
1577600615.1,286046999.9,N
1577600635.9,286046998.8,N
1577600655.7,286046998.8,N
1577600675.6,286046999.0,N
1577600695.4,286046997.1,N
1577600715.2,286046995.3,N
1577600735.1,286046997.7,N
1577600736.0,286046997.7,N
1577600755.8,286046997.1,N
1577600775.7,286046999.1,N
1577600795.5,286047000.3,N
1577600815.3,286047001.3,N
1577600835.2,286047002.7,N
1577600855.0,286046999.9,N
1577600855.9,286046999.9,N
1577600875.7,286046999.0,N
1577600895.6,286047000.6,N
1577600915.4,286047000.0,N
1577600935.3,286047000.5,N
1577600955.1,286047002.4,N
1577600956.0,286047002.4,N
1577600975.8,286047002.6,N
1577600995.7,286047001.2,N
1577601045.5,286047000.2,E
1577601055.5,286047000.7,N
1577601075.3,286046996.5,P
1577601095.1,286046997.7,N
1577601115.9,286046997.8,N
1577601135.7,286046997.7,N
1577601155.6,286046995.5,Y
1577601175.4,286046998.3,P
1577601195.2,286046996.8,P
1577601215.1,286046998.8,N
1577601216.0,286046998.8,N
1577601235.8,286047000.4,N
1577601255.7,286047002.2,N
1577601275.5,286047002.2,N
1577601295.3,286047001.8,N
1577601315.2,286047002.3,N
1577601335.0,286047001.8,N
1577601335.9,286047001.8,N
1577601355.7,286047002.6,N
1577601375.6,286046998.4,N
1577601395.4,286046997.2,N
1577601415.3,286046998.0,N
1577601435.1,286046998.7,N
1577601436.0,286046998.7,N
1577601455.8,286046998.2,N
1577601475.7,286047000.2,N
1577601495.5,286047002.1,N
1577601515.4,286047002.3,N
1577601535.2,286047000.0,N
1577601555.0,286047000.1,N
1577601555.9,286047000.1,N
1577601575.8,286046998.2,N
1577601595.6,286047002.2,N
1577601615.4,286047002.2,N
1577601635.3,286047001.6,N
1577601655.1,286047003.4,N
1577601675.9,286047004.0,N
1577601695.7,286047006.0,Y
1577601715.5,286047004.1,P
1577601735.4,286047000.0,N
1577601755.2,286047001.0,N
1577601775.0,286046998.3,N
1577601776.0,286046998.3,N
1577601795.8,286046999.8,N
1577601815.6,286047001.2,N
1577601835.5,286047000.3,N
1577601855.3,286047000.1,N
1577601875.1,286047000.7,N
1577601895.9,286046998.9,N
1577601915.7,286046998.9,N
1577601935.6,286047000.9,N
1577601955.4,286047000.1,N
1577601975.2,286047002.3,N
1577601995.1,286047000.2,N
1577601996.0,286047000.2,N
1577602015.8,286047000.0,N
1577602035.6,286046999.8,N
1577602055.5,286047000.1,N
1577602075.3,286047001.7,N
1577602095.2,286047004.0,Y
1577602115.9,286047001.5,P
1577602135.7,286047004.1,P
1577602155.6,286047001.5,N
1577602175.4,286047004.4,Y
1577602195.3,286047001.1,P
1577602215.1,286046999.0,N
1577602216.0,286046999.0,N
1577602235.8,286046998.4,N
1577602255.7,286046998.4,N
1577602275.5,286046997.4,N
1577602295.4,286046997.3,N
1577602315.2,286046995.3,Y
1577602335.0,286046997.3,P
1577602335.9,286046997.3,P
1577602355.8,286046997.1,P
1577602375.6,286046997.0,Y
1577602395.5,286046998.3,P
1577602415.3,286046998.3,P
1577602435.1,286046997.0,P
1577602455.9,286046996.5,Y
1577602475.7,286046999.5,P
1577602495.5,286046998.7,N
1577602515.4,286046999.3,N
1577602535.2,286047000.9,N
1577602555.1,286046998.8,N
1577602556.0,286046998.8,N
1577602575.8,286047001.0,N
1577602595.6,286046996.6,Y
1577602615.5,286046998.3,P
1577602635.3,286047001.5,N
1577602655.2,286047002.3,N
1577602675.9,286047002.0,N
1577602695.7,286047000.5,N
1577602715.6,286047001.0,N
1577602735.4,286047003.9,N
1577602755.2,286047004.1,N
1577602775.1,286047004.2,N
1577602776.0,286047004.2,N
1577602795.8,286047004.3,N
